Wind_Speed
33 33 33 33 33 34 35 35 36 36 37 38 38 38 38 38 37 37 37 37 36 36 35 33 32 31 30 29 29 29 29 28 28 28 27 27 26 26 26 26 26 26 26 26 26 27 27 27 27 27 27 27 27 27 26 26 26 26 26 26 26 26 26 26 26 26 26 25 25 26 26 26 27 28 29 30 31 32 32 32 32 32 31 32 32 33
32 33 33 33 34 34 35 36 36 37 37 38 38 38 37 37 37 37 37 36 35 35 33 32 31 30 29 29 28 28 28 28 28 27 27 26 26 26 26 26 26 26 26 26 26 26 26 26 26 26 27 27 27 27 27 27 27 27 27 28 28 28 28 28 29 29 29 28 28 28 28 28 28 29 29 30 31 32 33 34 35 35 34 34 34 34
32 33 33 34 34 35 35 36 37 37 37 37 37 37 37 37 37 36 36 35 34 33 32 31 30 29 28 28 28 28 28 28 27 27 26 26 26 26 25 25 25 25 25 25 25 25 25 25 25 26 26 26 26 27 27 27 27 28 28 28 29 29 30 30 30 31 31 31 31 31 31 31 31 30 31 31 31 32 33 35 35 36 36 36 36 36
32 33 33 34 35 35 36 36 37 37 37 37 37 37 36 36 36 36 35 34 33 32 31 29 29 28 28 28 28 28 28 27 27 26 26 26 26 26 26 25 25 25 25 25 25 25 25 25 25 25 25 25 26 26 26 27 27 28 28 29 30 30 31 31 32 32 33 33 34 34 34 34 34 34 33 33 33 33 34 35 35 36 37 37 37 37
32 33 34 34 35 35 36 36 37 37 37 37 36 36 36 36 35 35 34 33 32 30 29 28 28 28 28 28 28 27 27 27 26 26 26 26 26 26 26 26 25 25 25 25 25 25 25 25 25 25 25 25 25 26 26 26 27 28 28 29 30 30 31 32 33 33 34 35 36 36 37 37 37 37 37 36 36 36 36 36 36 37 37 38 38 39
33 33 34 34 35 35 36 36 37 37 37 36 36 36 35 35 35 34 33 32 30 29 28 28 28 28 28 28 27 27 27 26 26 26 26 26 26 26 26 25 25 25 25 25 25 25 25 25 25 25 26 26 26 26 26 26 27 27 28 29 29 30 31 32 33 33 34 35 36 37 38 38 39 39 39 39 39 39 38 38 38 38 39 39 39 40
33 34 34 35 35 36 36 37 37 37 36 36 36 35 35 34 34 33 32 30 29 28 28 28 28 28 27 27 27 27 26 26 26 26 26 26 26 26 25 25 25 25 25 25 25 25 25 26 26 26 26 26 27 27 27 27 27 28 28 29 30 30 31 32 32 33 34 35 36 37 38 39 40 41 41 41 41 41 41 41 41 40 40 41 41 41
34 34 34 35 35 36 36 36 37 36 36 35 35 34 34 33 33 32 31 29 28 28 27 27 27 27 27 27 27 26 26 26 26 26 26 26 26 26 26 25 25 25 25 25 26 26 26 27 27 27 27 27 28 28 28 28 28 29 29 30 30 31 31 32 33 34 34 35 36 37 38 39 40 41 42 43 43 43 43 43 43 43 43 42 42 42
34 34 35 35 35 36 36 36 36 36 35 35 34 34 33 32 32 31 30 29 28 27 27 27 27 27 27 27 26 26 26 26 26 26 26 26 26 26 26 26 26 26 26 26 27 27 27 28 28 29 29 29 29 29 29 29 29 30 30 31 31 32 33 33 34 34 35 36 36 37 38 39 40 41 42 43 44 45 45 45 45 45 45 44 44 44
34 35 35 36 36 36 36 36 36 35 35 34 34 33 32 31 31 30 29 28 27 27 27 27 27 27 27 26 26 26 26 26 26 26 26 26 26 27 27 27 27 27 27 27 28 28 29 29 30 30 30 30 30 30 30 31 31 31 32 32 33 33 34 34 35 35 36 37 37 38 39 40 41 42 42 43 44 45 46 46 47 47 47 46 46 46
35 35 35 36 36 36 36 35 35 35 34 33 33 33 32 31 30 29 28 28 27 27 27 27 27 27 27 26 26 26 26 27 27 27 27 27 27 27 28 28 28 28 28 29 29 30 30 31 31 31 31 31 31 31 32 32 33 33 34 34 35 35 36 36 37 37 38 38 39 39 40 41 41 42 43 44 45 45 46 47 48 48 48 48 48 48
35 35 36 36 36 36 35 35 34 34 33 33 32 32 31 30 29 28 28 27 27 27 27 27 27 27 26 26 26 27 27 27 27 28 28 28 28 28 29 29 29 29 30 30 30 31 32 32 32 32 32 32 33 33 33 33 34 35 35 36 36 37 37 38 38 39 40 40 41 41 42 42 43 43 44 45 45 46 47 48 48 49 49 50 50 50
36 36 36 36 36 35 35 34 34 33 33 32 32 31 30 30 29 28 28 27 27 27 27 27 27 26 26 26 27 27 27 28 28 28 29 29 29 29 30 30 30 30 31 31 32 32 33 33 33 33 33 33 34 34 34 35 35 36 37 37 38 38 39 40 40 41 41 42 42 43 43 44 44 45 45 46 47 47 48 48 49 50 50 51 51 51
36 36 36 36 35 35 34 34 33 33 32 32 31 31 30 29 28 27 27 27 27 27 27 27 26 26 26 26 27 27 28 28 29 29 30 30 30 30 30 31 31 31 32 32 33 33 33 34 34 34 34 34 35 35 36 36 37 37 38 39 39 40 40 41 42 42 43 43 44 44 45 46 46 47 47 48 48 48 49 49 50 50 51 51 51 52
36 36 36 35 34 34 34 33 33 32 32 32 31 30 29 28 28 27 27 27 26 26 26 26 26 26 26 26 27 28 28 29 30 30 31 31 31 31 31 31 32 32 32 33 33 34 34 34 35 35 35 35 36 36 37 37 38 39 39 40 41 41 42 42 43 43 44 44 45 45 46 47 47 48 48 49 49 50 50 50 51 51 51 51 52 52
36 35 35 34 34 33 33 33 32 32 32 31 30 29 28 28 27 27 26 26 26 26 26 26 26 26 26 27 27 28 29 30 30 31 31 31 31 31 32 32 32 33 33 33 34 34 35 35 35 36 36 36 37 38 38 39 40 40 41 41 42 42 43 43 44 44 45 45 46 46 47 47 48 48 49 50 50 51 51 51 51 52 52 52 52 52
35 35 34 33 33 33 32 32 32 32 31 30 30 29 28 27 27 26 26 26 26 26 26 26 26 26 27 27 28 28 29 30 31 31 32 32 32 32 32 32 32 33 33 34 34 35 35 36 36 37 37 38 38 39 40 40 41 42 42 43 43 44 44 45 45 45 46 46 47 47 47 48 49 49 50 50 51 51 52 52 52 52 52 52 52 52
34 34 33 32 32 32 32 32 31 31 31 30 29 28 27 27 26 26 26 26 26 26 26 26 26 26 27 28 29 29 30 31 31 32 32 32 32 32 32 32 33 33 34 34 35 35 36 37 37 38 38 39 40 40 41 42 42 43 44 44 45 45 46 46 46 46 47 47 47 48 48 49 49 50 50 51 51 52 52 52 52 52 52 52 52 52
33 32 32 32 32 32 31 31 31 31 30 29 28 28 27 27 26 26 26 26 26 26 26 26 26 27 28 28 29 30 31 31 32 32 32 32 32 32 32 32 33 34 34 35 35 36 37 38 38 39 40 40 41 41 42 43 44 44 45 46 46 46 47 47 47 48 48 48 48 49 49 49 50 50 51 51 52 52 52 53 53 53 53 53 53 53
32 31 31 31 31 31 31 31 31 30 29 29 28 27 27 26 26 26 26 26 26 26 26 26 27 28 28 29 30 31 32 32 32 33 33 33 33 32 32 33 33 34 35 35 36 37 37 38 39 40 41 41 42 43 43 44 45 46 46 47 47 48 48 48 48 48 49 49 49 50 50 50 51 51 51 52 52 52 52 53 53 53 53 53 53 53
31 31 31 31 31 31 31 31 30 29 29 28 28 27 27 26 26 26 26 26 26 26 26 27 28 28 29 30 31 32 32 33 33 33 33 33 33 33 33 33 34 35 35 36 37 37 38 39 40 41 41 42 43 44 44 45 46 47 47 48 48 49 49 49 49 49 50 50 50 50 51 51 51 51 52 52 52 52 52 53 53 54 54 54 54 54
30 30 31 31 31 31 31 30 29 29 28 28 27 27 26 26 26 26 26 26 26 26 27 27 28 29 30 31 31 32 33 33 33 33 33 33 33 33 33 34 35 35 36 37 37 38 39 40 41 42 42 43 44 45 45 46 47 48 48 49 49 50 50 50 50 50 51 51 51 51 52 52 52 52 52 52 52 52 52 53 53 54 54 55 55 55
30 30 31 31 31 31 30 30 29 28 28 27 27 27 27 26 26 26 26 26 26 27 27 28 29 30 31 31 32 32 33 33 33 33 33 33 33 34 34 35 35 36 37 38 38 39 40 41 42 42 43 44 45 46 46 47 48 49 49 50 50 50 51 51 51 51 51 52 52 52 52 52 52 52 52 52 52 52 52 53 53 54 54 55 55 55
31 31 31 31 31 30 30 29 28 28 27 27 27 27 27 26 26 26 26 26 27 27 28 29 30 30 31 32 32 33 33 33 33 33 34 34 34 34 35 36 36 37 38 39 39 40 41 42 42 43 44 45 46 47 47 48 49 50 50 51 51 51 51 51 51 52 52 52 53 53 53 52 52 52 51 51 51 52 52 52 53 53 54 55 55 56
31 31 31 31 30 30 29 29 28 28 27 27 27 27 27 27 27 27 27 27 27 28 29 30 30 31 32 32 33 33 33 33 33 34 34 34 35 35 36 37 38 39 39 40 40 41 42 42 43 44 45 46 47 47 48 49 50 51 51 51 51 52 52 52 52 52 53 53 53 53 53 52 51 51 51 51 51 51 51 52 52 53 54 54 55 55
32 31 31 31 30 29 29 28 28 27 27 27 27 27 27 27 27 27 27 27 28 28 29 30 31 32 33 33 33 33 33 33 34 34 35 35 36 37 37 38 39 40 41 41 41 42 42 43 44 45 46 46 47 48 49 50 51 51 52 52 52 52 52 52 52 53 53 53 53 53 52 51 50 50 50 50 50 50 51 51 52 53 53 54 55 55
32 31 31 30 29 29 28 28 28 27 27 27 27 27 27 27 27 27 27 28 28 29 30 31 32 33 34 34 34 34 34 34 34 35 35 36 37 38 39 40 40 41 42 42 42 43 43 44 45 45 46 47 48 49 50 51 51 52 52 52 52 52 52 52 53 53 53 53 53 52 51 50 49 49 49 49 49 50 50 51 52 53 53 54 54 55
31 31 30 30 29 28 28 28 28 28 28 28 28 28 28 28 28 28 28 29 29 30 31 32 33 34 35 35 35 35 35 35 35 36 37 38 39 39 40 41 41 42 42 43 43 43 44 44 45 46 47 48 49 50 51 51 52 52 52 52 52 52 52 53 53 53 53 53 52 50 49 48 48 47 48 48 49 49 50 51 52 53 53 54 54 55
30 30 29 29 29 28 28 28 28 28 28 28 28 28 28 28 29 29 29 30 31 32 33 34 35 36 36 36 36 36 36 36 37 37 38 39 40 41 41 42 42 43 43 43 44 44 45 45 46 47 47 48 49 50 51 52 52 53 53 53 52 52 53 53 53 53 53 52 50 49 47 47 46 47 47 48 48 49 50 51 52 52 53 54 54 55
30 29 29 29 28 28 28 28 28 28 28 28 28 29 29 29 29 29 30 31 32 33 34 35 36 36 37 37 38 38 37 38 38 39 40 40 41 42 42 43 43 43 44 44 45 45 45 46 46 47 48 49 50 51 52 52 53 53 53 53 52 52 53 53 53 53 52 50 49 47 46 45 46 46 46 47 48 48 49 50 51 52 52 53 54 54
29 29 29 28 28 28 28 28 28 28 28 28 29 29 29 29 29 30 31 31 32 33 35 36 36 37 38 38 38 39 39 39 39 40 41 41 42 42 43 43 43 44 44 44 45 45 46 47 47 48 48 49 50 51 52 52 53 53 53 52 52 52 52 53 53 52 51 49 47 46 45 44 45 45 46 46 47 47 48 48 49 50 51 51 52 53
29 29 28 28 28 28 28 28 28 29 29 29 29 29 29 29 30 30 31 32 33 34 35 36 37 38 38 39 39 39 40 40 41 41 42 42 42 43 43 43 44 44 45 45 45 46 47 47 48 49 49 50 51 51 52 53 53 53 53 52 52 52 52 52 52 51 49 47 45 44 44 44 44 44 45 45 45 46 46 46 47 47 48 49 49 50
29 29 29 29 29 29 29 29 29 29 29 29 29 29 29 30 30 31 32 33 34 35 36 37 38 38 39 39 40 40 41 41 41 42 42 42 43 43 43 43 44 44 45 46 46 47 47 48 49 49 50 50 51 52 53 53 53 53 52 52 52 51 52 51 51 50 48 46 44 43 43 43 43 43 43 43 43 44 44 44 44 45 45 45 46 46
29 29 29 29 29 29 29 29 29 29 29 29 29 29 30 30 31 32 33 33 35 36 37 38 39 39 40 40 40 41 41 41 42 42 43 43 43 43 43 44 44 45 45 46 47 47 48 48 49 50 51 51 52 52 53 53 53 53 52 51 51 51 51 51 50 48 46 44 42 41 41 41 41 41 41 41 41 41 41 41 41 41 41 41 41 42
29 29 29 29 29 29 29 29 29 29 29 29 30 30 30 31 32 32 33 34 36 37 38 39 39 40 40 41 41 41 41 42 42 42 43 43 43 43 44 44 44 45 46 46 47 47 48 49 49 50 51 52 53 53 53 53 53 53 52 51 50 50 50 50 49 47 45 43 41 40 40 40 40 40 40 39 39 39 39 39 39 38 38 38 37 38
29 29 29 29 29 29 29 29 30 30 30 30 30 31 31 32 32 33 34 35 37 38 39 39 40 41 41 41 42 42 42 42 42 42 42 43 43 44 44 44 45 46 46 47 47 48 48 49 49 50 51 52 53 54 54 54 53 53 51 51 50 50 50 49 48 46 44 41 39 39 39 39 39 39 38 38 38 38 37 37 36 35 35 34 34 34
29 29 29 29 29 29 30 30 30 30 30 31 31 31 32 33 33 34 35 36 38 39 40 40 41 41 41 42 42 42 42 42 42 42 43 43 43 44 45 45 46 46 47 47 48 48 48 49 50 50 51 52 53 53 54 54 53 52 51 50 50 50 50 49 48 46 43 40 39 38 38 38 38 38 38 38 38 37 36 35 34 33 33 32 31 31
29 29 29 29 29 30 30 30 30 30 31 31 32 32 33 34 35 36 37 38 39 40 40 41 41 42 42 42 42 42 42 42 42 43 43 43 44 45 45 46 47 47 48 48 48 49 49 49 50 50 51 52 53 53 53 53 53 52 51 50 50 50 49 49 47 45 42 40 38 37 37 37 37 37 37 37 37 36 36 34 33 32 31 30 29 29
29 29 29 29 30 30 30 30 31 31 31 32 33 33 34 35 36 37 38 39 40 40 41 41 42 42 42 42 42 42 42 42 42 43 43 44 45 46 46 47 48 48 49 49 49 49 49 49 50 50 51 52 53 53 53 53 52 51 51 50 50 49 49 48 47 45 42 39 38 37 37 37 37 37 36 37 36 36 35 34 33 31 30 29 28 28
30 30 30 30 30 30 31 31 31 32 32 33 34 34 35 36 37 38 39 40 40 41 42 42 42 42 42 42 42 42 42 43 43 43 44 45 46 47 47 48 48 49 49 49 49 49 49 50 50 51 51 52 53 53 53 52 52 51 50 50 49 49 49 48 46 44 41 39 37 37 36 36 36 36 36 36 36 35 34 33 32 30 29 28 27 27
30 30 30 30 31 31 31 32 32 33 33 34 35 36 36 37 38 39 40 41 41 42 42 42 42 42 42 42 42 42 43 43 44 44 45 46 47 48 48 49 49 50 50 50 50 50 49 50 50 51 52 52 52 52 52 52 51 50 50 49 49 49 49 48 46 44 41 39 37 36 36 36 36 35 35 35 35 34 34 32 31 30 29 28 27 26
31 31 31 31 32 32 32 33 33 34 34 35 36 37 37 38 39 40 41 41 42 42 43 43 43 43 42 42 43 43 43 43 44 45 46 47 48 48 49 50 50 50 50 50 50 50 50 50 50 51 51 52 52 52 51 51 50 49 49 49 49 49 48 47 46 43 41 38 37 36 36 35 35 35 35 34 34 34 33 32 31 30 28 27 26 26
31 32 32 32 32 33 33 33 34 34 35 36 37 37 38 39 40 40 41 42 42 42 43 43 43 43 43 43 43 43 43 44 45 46 47 48 49 49 50 50 50 50 50 50 50 50 50 50 50 51 51 51 51 51 50 50 49 49 48 48 48 48 48 47 45 43 40 38 36 35 35 35 35 34 34 34 33 33 33 32 31 30 28 27 26 25
32 32 32 32 33 33 33 34 34 35 36 36 37 38 39 39 40 41 41 42 42 43 43 43 43 43 43 43 43 44 44 45 46 47 48 49 49 50 51 51 51 51 50 50 49 49 50 50 50 51 51 51 51 50 50 49 49 48 48 48 48 48 47 47 45 43 40 37 36 35 35 35 34 34 34 33 33 33 32 32 31 30 29 27 26 25
32 32 32 33 33 33 34 34 35 36 36 37 38 38 39 40 41 41 42 42 43 43 43 43 43 44 44 44 44 44 45 46 47 47 48 49 50 51 51 51 51 51 50 50 49 49 49 50 50 51 51 51 50 50 49 48 48 48 47 47 47 47 47 46 45 42 40 37 35 35 34 34 34 34 33 33 32 32 32 32 31 30 29 28 27 26
33 33 33 33 34 34 35 35 36 36 37 38 38 39 40 40 41 42 42 43 43 43 43 44 44 44 44 45 45 45 46 47 47 48 49 50 51 51 51 51 51 50 50 49 49 49 49 49 50 50 50 50 50 49 48 48 47 47 47 47 47 47 47 46 44 42 39 37 35 34 34 34 34 33 33 32 32 32 32 31 31 30 29 28 27 26
34 34 34 34 34 35 36 36 37 38 38 39 39 40 40 41 42 42 43 43 43 44 44 44 44 45 45 46 46 46 47 48 48 49 50 50 51 51 51 51 50 50 49 49 49 49 49 49 50 50 50 50 49 49 48 47 47 46 46 47 47 47 46 45 44 42 39 37 35 34 34 33 33 33 32 32 31 31 31 31 31 30 29 28 27 26
34 34 35 35 35 36 37 37 38 39 39 39 40 40 41 41 42 43 43 43 44 44 45 45 45 46 46 47 47 48 48 49 49 50 50 51 51 51 51 50 50 49 49 49 49 49 49 49 49 50 49 49 49 48 47 47 46 46 46 46 46 46 46 45 44 41 39 36 35 34 33 33 33 32 32 31 30 30 30 30 30 30 29 29 28 26
35 35 35 36 36 37 38 38 39 39 40 40 40 41 41 42 42 43 43 44 44 45 45 46 46 46 47 48 48 49 49 50 50 50 51 51 51 51 51 50 49 49 49 48 48 48 48 49 49 49 49 49 48 47 47 46 46 46 46 46 46 46 45 45 43 41 39 36 35 33 33 33 32 32 31 30 30 29 30 30 30 30 29 29 28 27
36 36 36 37 37 38 38 39 39 40 40 41 41 41 42 42 42 43 44 44 45 45 46 46 47 47 48 49 49 50 50 50 51 51 51 51 51 51 50 50 49 48 48 48 47 47 48 48 48 49 48 48 47 47 46 46 46 45 45 45 45 45 45 44 43 41 38 36 34 33 33 32 32 31 31 30 29 29 29 29 30 30 29 29 28 27
37 37 37 38 38 39 39 39 40 40 41 41 41 41 42 42 42 43 44 45 45 46 47 47 48 48 49 49 50 50 51 51 51 51 51 51 51 51 50 49 48 48 48 47 47 47 47 47 48 48 48 47 47 46 46 46 45 45 45 45 45 45 44 44 42 41 38 36 34 33 32 32 32 31 30 30 29 28 28 29 29 30 30 29 28 27
Wind_Direction
277 277 278 280 282 284 286 288 290 292 294 295 296 296 297 297 298 298 299 300 300 300 300 299 298 298 298 298 299 299 300 300 301 302 303 305 306 308 310 312 314 315 317 318 319 320 320 321 321 321 321 321 322 322 321 321 320 320 319 318 316 314 313 310 308 306 303 300 297 294 291 289 287 286 286 286 286 285 285 284 282 280 278 275 274 272
277 277 279 280 282 285 287 289 291 293 294 295 296 296 296 297 297 298 299 299 299 299 298 297 297 297 297 297 298 299 299 300 301 302 303 305 307 309 310 312 314 315 316 317 318 319 320 320 320 320 320 320 320 320 320 319 318 317 316 315 314 313 311 310 308 306 304 301 298 296 293 290 288 286 285 284 283 283 283 283 282 281 279 276 274 272
277 278 279 281 283 285 288 290 292 294 295 295 295 296 296 296 297 298 298 298 298 297 296 296 296 296 296 297 298 299 299 300 301 303 304 306 308 310 311 313 314 315 317 318 318 319 319 319 320 320 320 320 320 319 319 318 317 316 315 313 311 310 308 307 305 304 302 300 298 296 294 292 290 288 286 284 283 282 282 281 281 281 280 278 276 273
278 279 280 282 284 287 289 291 293 294 295 295 295 295 295 296 296 297 297 297 296 296 295 295 295 295 296 297 298 299 300 301 302 304 305 307 309 311 312 314 315 316 317 317 318 318 319 319 319 319 319 319 319 319 319 318 317 316 314 312 310 308 306 305 303 302 300 299 298 296 295 294 293 291 289 287 285 283 281 280 279 279 279 278 276 275
278 279 281 283 286 288 290 292 294 295 295 294 294 294 295 295 296 296 296 296 295 294 293 293 294 295 296 297 298 299 300 301 303 305 306 308 310 311 313 314 315 316 316 317 317 318 318 318 318 318 318 318 318 318 318 317 316 314 313 311 309 307 306 304 302 301 299 298 297 296 295 294 293 292 290 289 287 285 282 280 279 278 277 276 276 275
279 280 282 285 287 289 291 293 294 294 294 294 293 294 294 295 295 295 295 294 293 292 292 292 293 294 296 297 298 299 300 302 303 305 306 308 310 311 312 313 313 314 315 315 316 316 316 316 316 315 316 316 316 316 315 315 313 312 310 309 307 306 304 303 302 301 299 298 297 296 295 294 293 291 290 289 287 285 283 281 279 277 276 275 274 273
280 281 283 286 288 290 292 293 294 294 293 293 293 293 293 294 294 294 293 292 291 291 291 292 293 295 296 298 298 299 300 301 303 304 306 307 308 309 310 311 311 312 313 313 314 314 313 313 313 313 313 313 314 313 313 312 311 310 308 307 306 304 303 302 301 300 299 298 297 296 295 294 293 291 290 289 287 286 284 282 280 278 277 275 274 272
281 283 285 288 290 291 292 293 293 293 292 292 292 292 292 293 292 292 291 290 290 290 291 292 294 295 296 298 298 299 300 301 302 303 304 305 306 307 307 308 309 309 310 310 311 311 311 311 311 311 311 311 311 311 311 310 309 308 307 306 304 303 303 302 301 300 299 298 297 296 295 294 293 292 290 289 288 286 285 283 281 280 278 276 274 272
284 286 288 289 291 292 292 292 292 292 291 291 291 291 291 291 290 290 289 288 288 289 291 292 294 296 297 297 298 298 299 300 301 302 303 304 304 305 305 306 306 307 308 308 308 309 309 309 309 309 309 310 310 310 309 309 308 307 306 305 304 303 302 301 300 299 298 297 296 295 294 293 292 291 290 289 288 287 285 284 282 281 279 277 275 273
285 288 289 291 291 292 292 291 291 290 290 290 289 289 289 289 289 288 287 287 288 289 291 293 294 296 297 297 297 298 298 299 300 301 302 302 303 303 303 304 305 305 306 307 307 307 307 308 308 308 308 309 309 309 308 308 307 307 306 305 304 303 302 302 301 300 299 297 296 295 294 292 291 290 289 288 287 286 285 284 283 282 280 278 277 275
287 289 290 291 291 291 291 290 290 289 289 288 288 289 288 288 287 287 287 287 288 290 292 294 295 296 297 297 297 298 298 299 300 300 301 301 302 302 302 303 304 304 305 306 306 306 307 307 307 307 308 308 308 308 308 308 307 307 306 305 305 304 303 302 301 300 299 298 297 295 294 293 291 290 289 288 287 286 285 284 283 282 281 279 278 276
289 290 290 291 291 291 290 289 289 288 287 287 287 287 287 287 286 286 286 288 289 291 293 294 295 296 297 297 297 298 298 299 300 300 300 301 301 301 302 303 303 304 304 305 305 306 306 306 307 307 307 308 308 308 308 307 307 307 306 306 305 305 304 303 302 301 300 299 298 296 295 294 292 291 289 288 287 286 284 283 282 281 280 280 279 277
289 290 290 290 290 289 288 287 287 286 286 286 285 285 285 285 285 285 286 288 290 292 293 294 295 296 297 297 298 298 299 299 300 300 300 301 301 301 302 303 303 304 304 304 305 305 306 306 306 307 307 308 307 307 307 307 307 306 306 306 305 305 304 303 303 302 301 300 298 297 296 294 293 292 290 289 287 286 284 283 282 281 280 279 278 277
289 289 289 289 288 287 286 286 285 284 284 284 284 284 284 284 284 285 286 288 290 292 293 294 295 296 297 298 298 299 299 300 300 300 300 301 301 302 302 303 303 303 304 304 304 305 305 305 306 306 307 307 307 307 307 307 306 306 306 306 305 305 304 303 303 302 301 299 298 297 296 295 293 292 291 289 288 286 285 284 282 281 280 279 278 277
288 288 288 287 286 285 285 284 284 283 284 284 284 284 283 283 284 285 287 288 290 292 293 294 295 296 297 298 299 299 300 300 300 300 300 301 301 301 302 303 303 303 303 304 304 304 305 305 305 306 306 306 307 307 307 306 306 306 306 305 305 305 304 303 302 301 300 299 298 297 296 294 293 292 291 289 288 287 285 284 283 281 280 279 278 277
287 287 286 285 284 283 283 283 283 283 283 283 283 282 282 283 284 285 287 289 291 292 293 295 296 297 297 298 299 300 300 300 300 300 300 300 301 301 302 302 302 303 303 303 304 304 305 305 305 306 306 306 306 307 307 307 306 306 306 306 305 305 304 304 303 302 301 299 298 297 295 294 293 291 290 289 288 286 285 284 283 282 280 279 278 277
286 285 284 283 282 282 282 282 282 282 282 282 282 281 281 282 284 285 287 289 291 292 294 295 297 298 299 299 299 300 300 300 300 300 300 300 301 301 301 302 302 302 303 303 304 304 305 305 305 306 306 306 307 307 307 307 307 307 307 306 306 306 305 304 303 302 301 300 298 297 295 294 293 291 290 288 287 286 285 284 283 282 281 280 279 278
284 283 282 281 280 280 281 281 281 281 281 281 281 281 281 282 284 286 288 289 291 293 294 296 297 298 299 300 300 300 300 300 300 300 300 300 301 301 301 302 302 303 303 304 304 305 305 306 306 306 307 307 307 307 308 308 308 308 308 307 307 306 306 305 304 303 302 300 299 297 296 294 293 291 290 288 287 286 285 284 283 282 281 280 279 278
281 281 280 279 279 280 280 280 280 280 280 280 280 280 281 282 284 286 288 290 291 293 295 296 297 299 300 300 301 301 301 301 301 301 301 301 301 302 302 302 303 303 304 304 305 305 306 306 306 307 307 307 308 308 308 308 309 308 309 308 308 307 306 306 305 303 302 301 299 298 297 295 293 292 290 289 287 286 285 284 283 282 281 280 279 278
280 279 279 279 279 279 280 280 280 280 279 279 279 280 281 283 284 286 288 290 291 293 295 297 298 299 300 301 302 302 302 302 302 302 302 302 302 302 303 303 303 304 305 305 306 306 306 306 307 307 308 308 308 309 309 309 309 309 309 309 309 308 307 306 305 304 303 301 300 299 297 296 294 293 291 289 288 286 285 284 283 282 281 280 279 278
279 278 279 279 279 280 280 280 280 279 279 279 279 280 281 283 284 286 288 290 292 293 295 297 298 300 301 302 302 303 303 303 303 302 302 302 302 303 303 304 304 305 305 306 306 307 307 307 307 308 308 309 309 309 310 310 310 310 310 310 309 309 308 307 306 305 303 302 301 300 298 297 295 293 292 290 288 287 285 284 283 282 281 280 279 278
278 279 279 280 280 280 280 280 279 278 278 278 279 280 281 283 285 286 288 290 292 293 295 297 298 300 301 302 303 303 304 303 303 303 303 303 303 303 304 304 305 306 306 307 307 307 307 308 308 308 309 309 310 310 311 311 311 311 311 311 310 309 308 307 306 305 304 303 302 301 299 298 296 294 292 291 289 287 286 284 283 282 281 280 279 278
279 279 280 280 280 280 280 279 278 278 278 278 279 280 282 283 284 286 288 290 292 293 295 297 298 300 301 302 303 303 304 304 303 303 303 303 303 304 305 305 306 306 307 308 308 308 308 308 308 309 309 310 311 311 312 312 312 312 312 311 310 310 309 308 307 306 305 304 303 302 300 298 297 295 293 291 289 288 286 285 283 282 281 280 279 278
279 280 280 280 280 279 279 278 278 278 278 279 280 281 282 283 285 286 288 290 292 294 295 297 298 300 301 302 303 303 304 303 303 303 303 303 304 304 305 306 307 307 308 308 309 309 309 309 309 310 310 311 311 312 312 313 313 313 312 312 311 310 309 308 307 306 306 305 304 302 301 299 297 295 294 292 290 288 287 285 284 282 281 280 279 277
280 280 280 280 280 279 278 278 278 278 278 279 280 281 282 283 285 287 288 290 292 294 295 297 298 300 301 302 302 303 303 303 303 303 303 303 304 305 306 307 307 308 308 309 309 309 309 309 310 310 311 312 312 313 313 313 313 313 313 312 311 310 309 308 308 307 306 305 304 303 301 300 298 296 294 292 291 289 287 286 284 282 281 280 278 277
281 281 281 280 279 279 278 278 278 279 279 279 280 281 282 283 285 286 288 290 291 293 295 296 298 299 300 301 301 302 302 302 302 302 303 303 304 305 306 307 308 308 309 309 309 310 310 310 310 311 312 312 313 313 314 314 314 313 313 312 311 310 309 309 308 308 307 306 305 304 302 301 299 297 295 293 292 290 288 286 285 283 281 280 278 277
282 281 281 280 279 279 279 279 279 279 279 280 280 281 282 283 285 286 287 289 291 292 294 296 297 298 299 300 301 301 301 301 302 302 302 303 304 305 306 307 308 308 309 309 310 310 310 310 311 312 312 313 313 314 314 314 314 314 313 312 311 311 310 309 309 308 308 307 306 304 303 301 300 298 297 295 293 292 290 288 286 284 282 280 278 277
282 281 281 280 280 280 279 280 280 280 280 280 281 282 283 284 285 286 288 289 291 292 294 296 297 298 299 300 301 301 301 302 302 302 302 303 304 305 306 307 308 308 309 309 309 310 310 311 311 312 313 313 314 314 315 315 314 314 313 312 312 311 310 310 310 309 308 307 306 305 303 302 301 299 298 297 295 293 291 289 287 285 282 280 279 277
282 281 281 281 280 280 280 280 280 280 281 281 282 283 284 285 286 288 289 291 292 293 295 296 298 299 300 301 301 301 302 302 302 302 302 303 304 305 306 307 308 308 309 309 310 310 310 311 311 312 313 314 314 315 315 315 315 314 313 313 312 311 311 311 310 310 309 308 307 305 304 303 302 301 300 299 297 295 293 290 288 285 283 281 279 277
282 281 281 281 281 281 281 281 281 281 281 282 283 284 285 286 288 289 291 292 293 295 296 297 298 299 300 301 301 302 302 302 302 302 303 303 304 305 306 307 307 308 309 309 310 310 310 311 311 312 313 314 315 315 315 315 315 314 313 313 312 312 311 311 311 311 310 309 307 306 305 304 303 303 302 301 299 297 294 292 289 286 284 282 280 278
282 282 282 282 282 281 281 281 281 281 282 282 283 284 286 287 288 290 291 292 294 295 296 297 298 299 300 301 302 302 303 303 303 303 303 304 304 305 306 307 307 308 309 310 310 311 311 311 312 312 313 314 315 315 316 316 315 314 313 313 312 312 312 312 312 311 310 309 308 306 305 305 305 305 304 303 301 299 296 294 291 288 285 283 280 278
282 282 282 282 282 282 281 281 281 281 282 282 283 284 286 287 288 290 291 292 293 294 295 296 297 298 299 301 302 302 303 303 303 303 304 304 305 305 306 307 308 308 309 310 310 311 312 312 313 313 314 314 315 316 316 316 315 314 313 313 312 312 313 313 312 312 311 309 308 307 306 306 307 307 306 305 303 301 298 295 293 290 287 284 281 279
283 283 282 282 282 282 281 281 281 281 282 283 283 284 285 287 288 289 290 292 293 294 295 296 297 298 299 300 302 302 303 303 304 304 304 304 305 306 306 307 308 308 309 310 310 311 312 312 313 313 314 315 315 316 316 316 315 314 313 313 313 313 313 313 313 312 311 309 308 307 307 308 308 308 308 306 304 302 300 297 294 291 288 285 282 280
284 283 283 283 282 282 282 282 282 282 282 283 284 285 286 287 288 289 290 291 292 293 294 296 297 298 299 300 301 302 303 303 304 304 304 305 305 306 306 307 308 308 309 310 311 311 312 312 313 314 314 315 315 316 316 316 315 314 313 313 313 313 314 314 313 312 310 309 307 307 308 309 309 309 309 307 305 303 301 298 295 292 289 287 284 281
284 284 284 283 283 283 283 283 283 283 283 284 284 285 286 287 288 289 290 291 292 293 294 295 297 298 299 301 302 302 303 303 304 304 304 305 305 306 306 307 308 309 309 310 311 311 312 312 313 314 315 315 316 316 316 315 315 314 313 313 313 314 314 314 313 312 310 308 307 307 308 309 310 310 309 308 306 304 302 299 296 294 291 288 286 283
284 284 284 284 283 283 283 283 283 284 284 285 285 286 286 287 288 289 290 291 292 293 294 295 296 298 299 301 302 303 303 304 304 304 305 305 305 306 307 308 308 309 310 310 311 311 312 312 313 314 315 315 316 316 316 316 315 314 314 313 314 314 315 314 314 312 310 308 307 307 309 310 311 311 310 310 308 306 304 302 299 296 293 291 288 285
285 284 284 284 284 283 283 284 284 284 284 285 285 286 287 287 288 289 290 291 292 293 294 295 297 298 299 301 302 302 303 304 304 305 305 305 306 306 307 308 308 309 310 310 311 311 312 312 313 314 315 316 316 316 316 316 315 314 314 314 314 315 315 315 314 313 311 309 308 308 309 310 311 312 312 311 311 310 308 306 303 300 297 294 291 288
285 285 285 284 284 284 284 284 284 284 285 285 286 287 287 288 289 290 291 292 292 293 294 296 297 298 300 301 302 303 303 304 304 305 305 306 306 306 307 308 309 309 310 311 311 311 312 313 313 314 315 316 316 316 316 315 315 314 314 314 315 316 316 316 315 313 311 309 308 308 309 311 312 312 313 313 313 313 312 310 308 305 301 298 294 290
286 285 285 285 284 284 284 284 285 285 286 286 287 288 289 289 290 291 291 292 293 294 295 296 297 299 300 301 302 303 303 304 304 305 305 306 306 307 308 309 309 310 310 311 311 311 312 313 313 314 315 316 316 316 316 315 315 314 314 315 315 316 316 316 315 314 312 310 309 309 310 311 312 313 314 314 315 315 315 313 312 309 305 301 298 294
286 285 285 285 285 285 285 285 286 287 287 288 288 289 290 290 291 291 292 292 293 294 295 297 298 299 300 301 302 303 303 304 305 305 306 306 307 307 308 309 309 310 311 311 311 312 312 313 313 314 315 316 316 316 315 315 314 314 314 315 316 316 317 316 316 314 312 310 308 309 310 311 312 313 314 315 316 316 316 316 315 313 309 306 302 297
286 286 286 286 286 286 286 287 288 288 289 289 290 290 291 291 291 292 292 293 294 295 296 297 298 299 300 301 302 302 303 304 305 305 306 306 307 308 308 309 310 310 310 311 311 311 312 313 314 314 315 316 316 316 315 314 314 314 314 315 316 316 317 316 315 314 311 309 308 308 309 311 312 313 314 315 316 317 317 317 317 315 313 310 306 302
286 286 286 286 287 287 288 288 289 290 290 291 291 291 292 292 292 292 293 294 295 296 297 298 299 299 300 301 301 302 303 304 305 306 306 307 307 308 309 309 310 310 311 311 311 311 312 313 314 314 315 316 316 315 315 314 314 314 314 315 316 316 316 316 315 314 311 309 308 308 309 310 311 312 313 314 315 316 317 317 318 317 316 314 311 307
286 286 286 287 287 288 289 290 290 291 292 292 292 292 292 293 293 294 294 295 295 296 297 298 298 299 300 300 301 302 303 304 305 306 307 307 308 308 309 309 310 310 310 311 311 311 312 313 314 314 315 315 315 315 314 314 314 314 314 315 316 316 316 316 315 314 311 309 308 307 308 309 310 311 313 314 315 315 316 317 318 318 318 317 314 311
286 286 287 288 288 289 290 291 291 292 292 293 293 293 294 294 294 294 295 295 296 296 297 298 298 299 299 300 301 302 303 304 305 306 307 307 308 309 309 310 310 310 310 310 311 311 312 313 314 314 315 315 315 314 314 313 313 314 314 315 315 316 316 316 315 314 311 309 307 307 307 308 309 311 312 313 314 314 315 316 317 318 319 319 318 316
287 287 288 289 289 290 291 292 292 293 293 294 294 294 295 295 295 295 295 296 296 296 297 298 298 299 299 300 301 302 303 304 305 306 307 307 308 309 309 310 310 310 310 310 311 311 312 313 314 314 315 315 315 314 314 313 313 313 314 315 315 316 316 316 315 313 311 308 306 306 307 307 308 310 311 312 312 313 313 314 315 317 318 319 319 318
287 288 289 290 290 291 292 292 293 294 294 294 295 295 295 296 296 296 296 296 296 297 297 298 298 299 299 300 301 303 303 304 305 306 306 307 308 308 309 309 310 310 310 310 311 311 312 313 314 314 315 315 314 314 313 313 313 313 314 315 315 316 316 316 315 313 311 308 306 305 305 306 307 309 310 310 311 311 312 312 314 315 316 318 319 319
288 289 289 290 291 291 292 293 294 294 294 295 295 296 296 296 296 296 296 296 297 297 297 298 298 299 300 301 302 302 303 304 305 305 306 307 307 308 309 309 309 309 310 310 311 312 312 313 314 314 315 314 314 313 313 313 313 313 314 314 315 316 316 316 315 313 310 307 305 304 304 305 306 307 308 309 309 310 310 310 311 312 314 316 317 319
288 289 290 290 291 292 293 293 294 294 295 295 296 296 296 296 296 296 296 296 297 297 297 298 298 299 300 301 302 303 303 304 304 305 306 306 307 308 308 308 309 309 309 310 311 311 312 313 314 314 314 314 314 313 313 313 313 313 314 314 315 316 316 315 314 313 310 307 304 303 303 304 305 306 307 307 308 308 308 308 309 310 311 313 315 317
289 289 290 291 292 293 293 294 295 295 296 296 297 297 297 296 296 296 296 297 297 297 298 298 299 299 300 301 302 303 303 304 304 305 305 306 307 307 307 308 308 308 309 310 310 311 312 313 313 314 314 314 314 313 313 312 313 313 313 314 315 315 315 315 314 312 309 306 303 302 301 302 303 304 305 305 306 306 306 306 306 307 308 310 312 314
290 290 291 292 293 294 294 295 296 296 296 297 297 297 296 296 296 296 296 297 297 297 298 298 299 300 300 301 302 303 303 303 304 304 305 306 306 307 307 307 307 308 308 309 310 311 312 312 313 313 313 313 313 313 312 312 312 312 313 314 314 315 315 314 313 311 309 305 302 300 299 300 301 302 303 304 304 304 304 304 304 304 305 307 309 311
290 291 292 293 294 295 295 296 296 296 296 296 296 296 296 296 296 296 296 296 297 297 298 298 299 300 301 301 302 302 302 303 303 304 305 306 306 306 307 307 307 308 308 309 310 310 311 311 312 313 313 313 313 312 312 312 312 312 312 313 314 314 314 314 313 311 308 304 301 299 298 298 299 300 301 302 303 303 303 302 302 302 303 304 306 307
Height
5713 5713 5712 5711 5711 5710 5709 5708 5708 5707 5706 5704 5703 5703 5702 5700 5699 5698 5698 5696 5695 5694 5693 5692 5691 5689 5688 5688 5687 5686 5684 5683 5682 5681 5680 5679 5678 5677 5675 5674 5673 5671 5670 5669 5668 5666 5665 5664 5663 5662 5660 5659 5658 5658 5657 5656 5655 5654 5653 5653 5652 5652 5651 5651 5651 5651 5650 5650 5650 5650 5651 5651 5651 5651 5650 5650 5650 5650 5650 5650 5650 5650 5651 5651 5651 5651
5711 5710 5709 5709 5708 5707 5706 5706 5705 5704 5703 5702 5701 5700 5699 5698 5697 5696 5695 5694 5693 5692 5690 5689 5688 5687 5686 5685 5684 5683 5683 5681 5680 5679 5678 5677 5676 5675 5673 5672 5671 5670 5668 5667 5666 5665 5664 5663 5662 5660 5659 5658 5657 5656 5655 5655 5654 5653 5652 5652 5651 5650 5650 5649 5649 5648 5648 5648 5648 5648 5648 5648 5648 5648 5648 5648 5648 5648 5647 5647 5647 5647 5647 5648 5648 5648
5709 5708 5707 5706 5705 5705 5704 5703 5702 5701 5700 5699 5698 5697 5696 5695 5694 5693 5692 5691 5690 5689 5688 5687 5686 5685 5684 5683 5682 5681 5680 5679 5678 5677 5676 5675 5674 5673 5671 5670 5669 5668 5667 5666 5664 5663 5662 5661 5660 5659 5658 5657 5656 5655 5654 5653 5653 5652 5651 5650 5650 5649 5648 5648 5648 5647 5647 5646 5646 5646 5646 5645 5645 5645 5645 5645 5645 5645 5645 5645 5644 5644 5644 5644 5644 5645
5706 5706 5704 5703 5703 5702 5701 5700 5699 5698 5698 5697 5695 5694 5693 5693 5691 5690 5689 5688 5687 5686 5685 5684 5683 5683 5682 5681 5680 5679 5678 5677 5676 5675 5674 5673 5672 5670 5669 5668 5667 5666 5665 5664 5663 5662 5661 5660 5659 5658 5657 5656 5655 5654 5653 5652 5651 5651 5650 5649 5648 5648 5647 5646 5646 5645 5645 5644 5644 5643 5643 5643 5642 5642 5642 5642 5642 5642 5642 5642 5642 5642 5641 5641 5641 5641
5704 5703 5702 5701 5700 5699 5698 5698 5697 5695 5694 5693 5693 5692 5691 5690 5689 5688 5687 5686 5685 5684 5683 5682 5681 5681 5680 5679 5678 5677 5676 5675 5674 5673 5672 5671 5669 5668 5668 5666 5665 5664 5663 5663 5662 5660 5659 5658 5658 5656 5655 5655 5654 5653 5652 5651 5650 5649 5649 5648 5647 5646 5645 5645 5644 5643 5643 5642 5642 5641 5640 5640 5640 5639 5639 5639 5639 5639 5639 5639 5639 5639 5638 5638 5638 5638
5701 5701 5699 5698 5698 5697 5695 5694 5694 5693 5692 5691 5690 5689 5688 5687 5686 5685 5684 5683 5683 5682 5681 5680 5679 5678 5678 5677 5676 5675 5674 5673 5672 5671 5670 5669 5668 5667 5666 5665 5664 5663 5662 5661 5660 5659 5658 5657 5656 5655 5654 5653 5653 5652 5651 5650 5649 5648 5648 5647 5646 5645 5644 5643 5642 5642 5641 5640 5639 5638 5638 5638 5637 5637 5636 5636 5636 5636 5636 5636 5635 5635 5635 5635 5635 5634
5698 5698 5697 5696 5695 5694 5693 5692 5691 5690 5689 5688 5687 5686 5685 5685 5684 5683 5682 5681 5680 5679 5678 5678 5677 5676 5675 5674 5674 5673 5672 5671 5670 5669 5668 5667 5666 5665 5664 5663 5662 5661 5660 5659 5658 5657 5656 5655 5654 5653 5653 5652 5651 5650 5649 5648 5648 5647 5646 5645 5644 5643 5642 5641 5641 5640 5639 5638 5637 5636 5636 5635 5634 5633 5633 5633 5632 5632 5632 5632 5632 5632 5632 5631 5631 5631
5695 5695 5694 5693 5692 5691 5690 5689 5688 5687 5686 5685 5684 5684 5683 5682 5681 5680 5679 5678 5678 5677 5676 5675 5675 5674 5673 5673 5672 5671 5670 5669 5668 5667 5666 5665 5664 5663 5663 5662 5661 5660 5659 5658 5657 5656 5655 5653 5653 5652 5651 5650 5649 5648 5648 5647 5646 5645 5644 5643 5642 5641 5640 5639 5638 5638 5637 5636 5635 5634 5633 5632 5631 5631 5630 5629 5629 5628 5628 5628 5628 5627 5627 5627 5627 5627
5693 5692 5691 5691 5690 5689 5688 5686 5686 5685 5684 5683 5682 5681 5681 5680 5679 5678 5677 5676 5675 5675 5674 5673 5673 5672 5671 5670 5669 5668 5668 5667 5666 5665 5664 5663 5663 5662 5661 5660 5659 5658 5657 5656 5655 5654 5653 5652 5651 5650 5649 5648 5647 5647 5646 5645 5644 5643 5642 5641 5640 5639 5638 5637 5636 5635 5634 5633 5633 5632 5631 5630 5629 5628 5627 5626 5625 5624 5624 5623 5623 5623 5623 5623 5623 5623
5690 5689 5688 5688 5687 5686 5685 5684 5683 5682 5681 5680 5679 5679 5678 5678 5677 5676 5675 5674 5673 5673 5672 5671 5670 5669 5669 5668 5667 5666 5665 5664 5664 5663 5662 5661 5661 5660 5659 5658 5657 5656 5655 5654 5653 5652 5651 5649 5648 5648 5647 5646 5645 5644 5643 5642 5641 5640 5639 5638 5637 5636 5635 5635 5634 5633 5632 5631 5630 5629 5628 5627 5626 5625 5624 5623 5622 5621 5620 5620 5619 5618 5618 5618 5618 5618
5687 5686 5686 5684 5684 5683 5683 5682 5680 5679 5678 5678 5677 5676 5675 5675 5674 5673 5673 5672 5671 5670 5669 5669 5668 5667 5666 5665 5665 5664 5663 5662 5661 5661 5660 5659 5658 5658 5657 5656 5655 5654 5653 5652 5651 5649 5648 5647 5646 5645 5644 5643 5643 5642 5640 5639 5638 5638 5637 5635 5634 5633 5633 5632 5631 5630 5629 5628 5627 5626 5625 5624 5623 5622 5621 5620 5618 5618 5617 5616 5615 5614 5614 5613 5613 5613
5684 5683 5683 5682 5681 5680 5680 5679 5678 5677 5676 5675 5674 5674 5673 5672 5672 5671 5670 5669 5669 5668 5667 5666 5666 5665 5664 5663 5662 5662 5661 5660 5659 5658 5658 5657 5656 5655 5654 5653 5653 5652 5650 5649 5648 5647 5646 5644 5643 5643 5642 5641 5640 5639 5638 5637 5636 5635 5633 5633 5632 5631 5629 5628 5628 5627 5625 5624 5623 5622 5621 5620 5619 5618 5617 5616 5615 5614 5613 5612 5611 5610 5609 5609 5608 5608
5681 5680 5680 5679 5678 5678 5677 5676 5675 5674 5674 5673 5672 5671 5670 5670 5669 5668 5668 5667 5666 5666 5665 5664 5663 5663 5662 5661 5660 5659 5658 5658 5657 5656 5655 5654 5653 5653 5652 5651 5650 5649 5648 5647 5645 5644 5643 5642 5641 5640 5639 5638 5637 5636 5635 5634 5633 5632 5631 5630 5628 5628 5626 5625 5624 5623 5622 5621 5619 5618 5617 5616 5615 5614 5613 5612 5611 5610 5609 5608 5607 5606 5605 5604 5604 5603
5678 5677 5677 5676 5675 5674 5674 5673 5673 5672 5671 5671 5670 5669 5668 5667 5667 5666 5665 5665 5664 5663 5663 5662 5661 5660 5659 5659 5658 5657 5656 5655 5654 5653 5653 5652 5651 5650 5649 5648 5647 5646 5645 5644 5643 5642 5640 5639 5638 5637 5636 5635 5634 5633 5632 5631 5630 5629 5628 5627 5625 5624 5623 5622 5621 5619 5618 5617 5616 5614 5613 5612 5611 5610 5608 5607 5606 5605 5604 5603 5602 5601 5601 5600 5599 5598
5675 5674 5673 5673 5672 5672 5671 5671 5670 5669 5668 5668 5667 5666 5665 5665 5664 5664 5663 5662 5662 5661 5660 5660 5659 5658 5657 5656 5655 5654 5653 5653 5652 5651 5650 5649 5648 5648 5647 5645 5644 5643 5642 5641 5640 5639 5638 5637 5635 5634 5633 5632 5631 5630 5629 5628 5627 5626 5624 5623 5622 5621 5620 5618 5617 5616 5614 5613 5612 5610 5609 5608 5607 5605 5604 5603 5602 5601 5599 5598 5598 5597 5596 5595 5594 5594
5672 5672 5671 5670 5669 5669 5668 5668 5667 5666 5666 5665 5664 5664 5663 5663 5662 5661 5661 5660 5659 5659 5658 5657 5657 5656 5655 5654 5653 5652 5651 5650 5649 5648 5648 5647 5646 5645 5644 5643 5642 5640 5639 5638 5637 5636 5635 5634 5633 5631 5630 5629 5628 5627 5626 5624 5623 5622 5621 5620 5618 5617 5616 5614 5613 5612 5610 5609 5608 5606 5605 5603 5602 5601 5600 5598 5597 5596 5595 5594 5593 5592 5591 5590 5590 5589
5669 5669 5668 5667 5667 5666 5666 5665 5665 5664 5663 5663 5662 5661 5661 5660 5659 5659 5658 5658 5657 5656 5656 5655 5654 5653 5653 5652 5651 5650 5649 5648 5646 5646 5645 5644 5643 5643 5642 5640 5639 5638 5637 5636 5634 5633 5632 5631 5629 5628 5627 5626 5625 5623 5622 5621 5620 5618 5617 5616 5614 5613 5612 5610 5609 5608 5606 5605 5603 5602 5600 5599 5598 5596 5595 5594 5593 5591 5590 5589 5588 5587 5587 5586 5585 5584
5667 5666 5665 5665 5664 5663 5663 5663 5662 5661 5661 5660 5659 5658 5658 5658 5657 5656 5656 5655 5655 5654 5653 5652 5652 5651 5650 5649 5648 5647 5646 5645 5644 5643 5642 5642 5640 5640 5639 5638 5636 5635 5634 5633 5632 5630 5629 5627 5626 5625 5624 5623 5621 5620 5619 5618 5616 5615 5613 5612 5610 5609 5608 5606 5604 5603 5602 5600 5598 5597 5596 5594 5593 5592 5590 5589 5588 5587 5585 5584 5583 5583 5582 5581 5580 5580
5664 5663 5663 5662 5662 5661 5661 5660 5659 5659 5658 5658 5657 5656 5656 5655 5655 5654 5653 5653 5652 5651 5650 5650 5649 5648 5648 5647 5645 5644 5643 5642 5641 5640 5639 5638 5638 5637 5636 5634 5633 5632 5631 5630 5628 5627 5626 5624 5623 5622 5620 5619 5618 5617 5615 5614 5613 5611 5609 5608 5606 5605 5603 5602 5600 5598 5597 5595 5594 5592 5591 5589 5588 5587 5585 5584 5583 5582 5581 5579 5578 5578 5577 5576 5575 5575
5661 5661 5660 5660 5659 5658 5658 5658 5657 5656 5655 5655 5654 5654 5653 5653 5652 5652 5651 5651 5650 5649 5648 5647 5646 5646 5645 5644 5643 5642 5641 5639 5638 5637 5637 5636 5635 5634 5633 5632 5630 5629 5628 5627 5626 5624 5623 5621 5620 5618 5617 5616 5614 5613 5612 5610 5608 5607 5605 5604 5602 5600 5599 5597 5596 5594 5592 5591 5589 5588 5586 5584 5583 5582 5580 5579 5578 5577 5576 5574 5573 5573 5572 5571 5570 5570
5658 5658 5658 5657 5657 5656 5655 5655 5654 5653 5653 5652 5652 5651 5651 5650 5650 5649 5649 5648 5647 5647 5646 5645 5644 5643 5643 5642 5640 5639 5638 5637 5635 5634 5633 5633 5632 5631 5630 5629 5628 5626 5625 5624 5623 5621 5620 5618 5617 5615 5614 5612 5611 5609 5608 5606 5605 5603 5601 5600 5598 5596 5594 5593 5591 5589 5588 5586 5584 5583 5581 5579 5578 5576 5575 5574 5573 5571 5570 5569 5568 5568 5567 5566 5565 5564
5656 5656 5655 5654 5654 5653 5653 5652 5651 5651 5650 5649 5649 5649 5648 5648 5647 5647 5646 5646 5645 5644 5643 5642 5642 5641 5640 5639 5638 5636 5635 5634 5633 5632 5631 5629 5629 5628 5627 5626 5625 5623 5623 5621 5620 5618 5617 5615 5613 5612 5610 5609 5608 5606 5604 5603 5601 5599 5597 5595 5593 5592 5590 5588 5586 5584 5583 5581 5579 5578 5576 5574 5573 5571 5570 5568 5567 5566 5565 5564 5563 5562 5561 5560 5560 5559
5653 5653 5652 5652 5651 5650 5650 5649 5648 5648 5648 5647 5646 5646 5645 5645 5645 5644 5643 5643 5642 5641 5640 5640 5639 5638 5637 5636 5635 5633 5633 5631 5630 5628 5628 5626 5625 5625 5624 5623 5622 5621 5619 5618 5617 5615 5613 5612 5610 5608 5607 5605 5604 5602 5600 5599 5597 5595 5593 5591 5589 5587 5585 5583 5582 5580 5578 5576 5574 5572 5571 5569 5567 5566 5564 5563 5561 5560 5559 5558 5557 5556 5556 5555 5554 5553
5651 5650 5650 5649 5648 5648 5647 5647 5646 5645 5645 5644 5644 5643 5643 5642 5642 5641 5641 5640 5639 5638 5638 5637 5636 5635 5635 5634 5633 5631 5630 5629 5627 5626 5625 5623 5623 5622 5621 5620 5619 5618 5616 5615 5613 5612 5610 5608 5607 5605 5603 5602 5600 5598 5597 5595 5593 5591 5589 5587 5585 5583 5581 5579 5577 5575 5573 5571 5569 5567 5565 5563 5562 5560 5558 5557 5556 5555 5553 5553 5552 5551 5550 5549 5548 5548
5648 5648 5647 5646 5646 5645 5644 5644 5643 5643 5642 5642 5641 5641 5640 5640 5639 5638 5638 5637 5636 5636 5635 5634 5634 5633 5632 5631 5630 5629 5628 5626 5625 5623 5622 5621 5620 5619 5618 5617 5616 5614 5613 5612 5610 5608 5607 5605 5603 5601 5600 5598 5596 5594 5593 5591 5589 5587 5585 5583 5580 5578 5576 5574 5572 5570 5568 5566 5564 5562 5560 5558 5556 5555 5553 5552 5550 5549 5548 5547 5546 5545 5544 5543 5542 5541
5645 5645 5644 5643 5643 5642 5642 5641 5641 5640 5639 5639 5638 5638 5638 5637 5637 5636 5636 5635 5634 5633 5633 5632 5631 5630 5629 5629 5628 5627 5625 5624 5622 5621 5619 5618 5617 5616 5615 5614 5613 5611 5609 5608 5607 5605 5603 5601 5599 5598 5596 5594 5593 5591 5588 5587 5585 5583 5580 5578 5576 5574 5572 5570 5568 5565 5563 5561 5559 5557 5555 5553 5551 5549 5548 5546 5545 5544 5542 5541 5540 5539 5538 5537 5536 5535
5642 5642 5641 5641 5640 5639 5639 5638 5638 5638 5637 5636 5636 5636 5635 5634 5634 5634 5633 5633 5632 5631 5630 5629 5628 5627 5627 5626 5625 5624 5623 5621 5620 5618 5617 5615 5614 5613 5612 5610 5609 5608 5606 5604 5603 5602 5600 5598 5596 5594 5592 5590 5588 5587 5584 5583 5580 5578 5576 5574 5572 5570 5568 5565 5563 5561 5558 5556 5554 5552 5550 5548 5546 5544 5543 5541 5540 5538 5537 5535 5534 5533 5532 5531 5530 5529
5639 5639 5638 5638 5637 5637 5636 5636 5635 5635 5634 5634 5633 5633 5632 5632 5632 5631 5630 5630 5629 5628 5627 5626 5625 5624 5623 5622 5622 5621 5620 5618 5617 5615 5614 5612 5611 5609 5608 5607 5605 5604 5603 5601 5599 5598 5596 5594 5593 5591 5588 5587 5585 5583 5581 5578 5576 5574 5572 5570 5568 5565 5563 5561 5558 5556 5554 5552 5549 5547 5545 5543 5541 5539 5538 5536 5534 5533 5531 5530 5528 5527 5526 5525 5524 5523
5637 5636 5636 5635 5635 5634 5634 5633 5633 5632 5632 5631 5631 5630 5629 5629 5628 5628 5628 5627 5626 5625 5624 5623 5622 5621 5620 5619 5618 5618 5617 5615 5614 5612 5611 5609 5608 5606 5605 5604 5602 5601 5599 5597 5596 5594 5593 5591 5589 5587 5585 5583 5581 5579 5577 5574 5572 5570 5568 5565 5563 5561 5558 5556 5554 5552 5549 5547 5545 5543 5540 5538 5537 5535 5533 5531 5529 5528 5526 5524 5523 5521 5520 5518 5518 5517
5634 5633 5633 5633 5632 5632 5631 5631 5630 5630 5629 5629 5628 5628 5627 5626 5625 5625 5624 5623 5623 5622 5621 5620 5619 5618 5617 5616 5615 5614 5613 5612 5611 5609 5608 5606 5604 5603 5602 5600 5599 5597 5596 5593 5592 5590 5589 5588 5586 5584 5581 5579 5577 5575 5573 5570 5568 5566 5563 5561 5559 5557 5554 5552 5549 5547 5545 5542 5540 5538 5536 5534 5532 5530 5528 5526 5524 5522 5520 5518 5517 5515 5513 5513 5512 5511
5632 5631 5630 5630 5629 5629 5628 5628 5628 5627 5627 5626 5626 5625 5624 5623 5623 5622 5621 5620 5620 5619 5618 5617 5616 5615 5614 5613 5612 5610 5609 5609 5608 5606 5605 5603 5601 5600 5599 5597 5595 5593 5592 5590 5588 5585 5584 5583 5582 5580 5578 5576 5573 5571 5569 5567 5564 5562 5559 5557 5555 5553 5550 5548 5545 5543 5540 5538 5536 5534 5532 5530 5528 5526 5523 5521 5519 5517 5515 5513 5511 5509 5508 5507 5505 5505
5629 5628 5628 5628 5627 5627 5626 5626 5625 5625 5624 5624 5623 5623 5622 5621 5620 5619 5618 5618 5617 5616 5615 5614 5613 5612 5611 5610 5609 5608 5606 5605 5604 5603 5601 5600 5598 5597 5595 5594 5592 5590 5588 5587 5585 5582 5580 5578 5577 5576 5574 5572 5570 5568 5565 5563 5561 5558 5556 5553 5551 5548 5546 5544 5541 5538 5536 5534 5532 5530 5528 5526 5523 5521 5519 5517 5514 5512 5510 5508 5506 5504 5502 5501 5500 5499
5627 5626 5625 5625 5624 5624 5623 5623 5623 5622 5622 5621 5621 5620 5619 5618 5618 5617 5616 5615 5614 5613 5613 5612 5611 5609 5608 5607 5606 5605 5604 5602 5600 5599 5598 5596 5595 5593 5592 5590 5589 5587 5585 5583 5581 5579 5577 5574 5573 5571 5569 5568 5566 5564 5562 5559 5557 5555 5552 5549 5547 5545 5542 5540 5537 5535 5532 5530 5528 5526 5524 5522 5520 5518 5515 5513 5510 5508 5505 5503 5501 5499 5497 5496 5494 5493
5624 5623 5623 5622 5622 5621 5621 5620 5620 5619 5619 5618 5618 5617 5617 5616 5615 5614 5613 5613 5612 5610 5609 5608 5608 5607 5605 5604 5603 5602 5601 5599 5598 5596 5594 5593 5591 5590 5588 5587 5585 5583 5581 5579 5578 5576 5573 5571 5569 5567 5565 5563 5562 5560 5558 5555 5553 5551 5549 5546 5544 5541 5539 5536 5534 5531 5529 5527 5525 5523 5521 5519 5517 5514 5512 5509 5507 5504 5502 5499 5497 5495 5493 5491 5490 5489
5621 5621 5620 5620 5619 5619 5618 5618 5617 5617 5616 5616 5615 5615 5614 5613 5613 5612 5611 5610 5609 5608 5606 5605 5604 5603 5602 5601 5600 5599 5598 5596 5594 5593 5591 5589 5588 5586 5585 5583 5582 5580 5578 5576 5574 5572 5569 5567 5565 5563 5561 5558 5557 5555 5553 5551 5549 5547 5544 5543 5540 5538 5535 5533 5530 5528 5526 5523 5522 5520 5518 5516 5513 5511 5508 5506 5503 5501 5498 5496 5493 5491 5489 5487 5486 5485
5619 5618 5618 5618 5617 5617 5616 5615 5615 5614 5614 5613 5613 5612 5611 5610 5610 5609 5608 5607 5606 5605 5603 5602 5601 5600 5599 5598 5597 5596 5594 5593 5591 5590 5588 5586 5585 5583 5582 5580 5578 5577 5574 5572 5570 5568 5566 5563 5562 5560 5558 5555 5552 5550 5548 5547 5544 5542 5540 5538 5536 5534 5531 5529 5526 5524 5522 5520 5518 5516 5514 5512 5510 5508 5505 5503 5500 5497 5495 5492 5490 5488 5486 5484 5483 5481
5617 5616 5616 5615 5614 5614 5613 5613 5613 5612 5611 5610 5610 5609 5608 5608 5607 5606 5605 5604 5603 5602 5600 5599 5598 5597 5596 5595 5593 5592 5591 5589 5588 5586 5585 5583 5581 5580 5578 5576 5575 5573 5571 5569 5566 5564 5562 5560 5558 5555 5553 5551 5549 5546 5544 5542 5540 5538 5536 5534 5532 5529 5527 5524 5522 5520 5518 5516 5514 5513 5511 5508 5506 5504 5502 5499 5497 5494 5492 5489 5487 5485 5483 5481 5479 5478
5614 5614 5613 5613 5612 5612 5611 5610 5610 5609 5608 5608 5607 5606 5605 5605 5604 5603 5602 5601 5599 5598 5597 5596 5595 5594 5593 5592 5590 5589 5588 5586 5585 5583 5582 5580 5578 5577 5575 5573 5571 5569 5568 5565 5563 5561 5559 5556 5554 5552 5549 5547 5545 5543 5540 5538 5536 5533 5532 5529 5527 5525 5523 5520 5518 5516 5514 5512 5511 5509 5507 5505 5503 5500 5498 5496 5493 5491 5488 5486 5484 5482 5480 5478 5476 5475
5612 5611 5611 5610 5609 5609 5608 5608 5607 5606 5606 5605 5604 5603 5603 5602 5601 5600 5598 5598 5596 5595 5594 5593 5592 5591 5589 5588 5587 5586 5584 5583 5582 5580 5578 5577 5575 5573 5571 5569 5568 5566 5564 5562 5560 5558 5555 5553 5551 5548 5546 5543 5541 5538 5536 5534 5532 5530 5528 5525 5523 5521 5519 5516 5514 5512 5510 5508 5507 5505 5503 5502 5499 5497 5495 5492 5490 5488 5485 5483 5481 5479 5477 5475 5474 5472
5609 5609 5608 5608 5607 5606 5606 5605 5604 5603 5603 5602 5601 5600 5599 5598 5598 5596 5595 5594 5593 5592 5591 5590 5588 5588 5586 5585 5584 5583 5581 5580 5578 5577 5575 5573 5572 5570 5568 5566 5564 5562 5560 5558 5556 5554 5552 5549 5547 5545 5543 5540 5537 5534 5532 5530 5528 5526 5524 5522 5519 5517 5515 5513 5510 5508 5507 5505 5503 5502 5500 5498 5496 5494 5492 5489 5487 5484 5482 5480 5478 5476 5474 5473 5471 5470
5607 5606 5606 5605 5604 5603 5603 5602 5601 5601 5600 5599 5598 5597 5596 5595 5594 5593 5592 5591 5590 5588 5588 5586 5585 5584 5583 5582 5581 5579 5578 5576 5575 5573 5572 5570 5568 5566 5564 5563 5561 5558 5556 5554 5552 5550 5548 5546 5544 5541 5539 5537 5534 5531 5529 5527 5525 5523 5521 5518 5516 5514 5511 5509 5507 5505 5503 5502 5500 5499 5497 5495 5493 5491 5488 5486 5484 5482 5480 5478 5476 5474 5472 5471 5469 5468
5604 5603 5603 5602 5601 5601 5600 5599 5598 5598 5597 5596 5595 5594 5593 5592 5591 5590 5589 5588 5587 5585 5584 5583 5582 5581 5580 5578 5578 5576 5575 5573 5572 5570 5568 5566 5565 5563 5561 5559 5557 5555 5553 5551 5548 5547 5545 5543 5540 5538 5535 5533 5531 5528 5525 5523 5521 5519 5517 5515 5513 5510 5508 5506 5504 5502 5500 5499 5497 5496 5494 5492 5490 5488 5486 5483 5481 5479 5477 5475 5473 5472 5470 5468 5467 5465
5601 5601 5600 5599 5598 5598 5597 5596 5596 5595 5594 5593 5592 5591 5590 5589 5588 5587 5586 5584 5583 5582 5581 5580 5579 5578 5577 5575 5574 5573 5571 5570 5568 5567 5565 5563 5561 5559 5557 5555 5553 5551 5549 5547 5545 5543 5541 5539 5537 5534 5532 5529 5527 5525 5523 5520 5518 5516 5513 5512 5509 5507 5505 5503 5501 5499 5497 5496 5494 5493 5491 5489 5487 5485 5483 5481 5479 5477 5475 5473 5471 5469 5468 5466 5465 5463
5598 5598 5597 5596 5595 5595 5594 5593 5593 5592 5591 5590 5589 5588 5587 5586 5585 5584 5583 5581 5580 5579 5578 5576 5575 5574 5573 5572 5571 5570 5568 5567 5565 5563 5561 5559 5557 5555 5553 5551 5549 5547 5545 5543 5541 5539 5537 5535 5533 5531 5528 5526 5524 5521 5519 5517 5515 5513 5510 5508 5506 5504 5502 5499 5497 5496 5494 5493 5491 5490 5488 5486 5484 5483 5480 5478 5476 5474 5472 5470 5468 5467 5465 5464 5463 5461
5595 5594 5594 5593 5593 5592 5591 5590 5590 5589 5588 5587 5586 5585 5584 5583 5582 5580 5579 5578 5577 5576 5574 5573 5572 5571 5570 5569 5568 5566 5565 5563 5562 5560 5558 5556 5554 5552 5550 5548 5545 5543 5542 5539 5538 5536 5533 5531 5529 5527 5524 5523 5520 5518 5516 5513 5511 5509 5507 5505 5502 5500 5498 5496 5494 5492 5491 5489 5488 5487 5485 5483 5482 5480 5478 5476 5474 5472 5470 5468 5466 5465 5463 5462 5460 5459
5592 5592 5591 5590 5589 5589 5588 5587 5586 5586 5585 5584 5583 5582 5581 5579 5578 5577 5576 5575 5573 5572 5571 5570 5569 5567 5566 5565 5564 5563 5561 5560 5558 5557 5554 5553 5550 5548 5546 5544 5542 5540 5538 5536 5533 5532 5530 5528 5525 5523 5521 5519 5517 5515 5513 5511 5508 5506 5504 5502 5499 5497 5495 5493 5491 5489 5488 5487 5485 5484 5482 5481 5479 5477 5476 5474 5472 5470 5468 5466 5464 5463 5461 5460 5458 5457
5589 5589 5588 5588 5587 5586 5585 5584 5583 5583 5582 5581 5580 5578 5577 5576 5575 5573 5572 5571 5570 5569 5568 5567 5565 5564 5563 5561 5560 5559 5557 5556 5555 5553 5551 5549 5547 5545 5543 5541 5538 5536 5534 5532 5530 5528 5526 5524 5522 5519 5518 5515 5513 5511 5509 5507 5505 5503 5501 5498 5496 5494 5492 5490 5488 5486 5485 5483 5482 5481 5479 5478 5476 5475 5473 5472 5470 5468 5466 5464 5462 5460 5459 5458 5456 5455
5586 5586 5585 5584 5584 5583 5582 5581 5580 5579 5578 5578 5577 5575 5574 5573 5572 5570 5569 5568 5567 5565 5564 5563 5562 5560 5559 5558 5556 5555 5553 5552 5551 5549 5548 5546 5544 5542 5540 5538 5535 5533 5531 5529 5527 5524 5522 5520 5518 5516 5514 5512 5509 5507 5505 5504 5502 5499 5497 5495 5493 5491 5489 5487 5485 5483 5482 5481 5479 5478 5477 5475 5474 5473 5471 5470 5468 5466 5464 5462 5460 5458 5457 5456 5454 5453
5583 5583 5582 5581 5581 5580 5579 5578 5577 5576 5575 5574 5573 5572 5571 5569 5568 5567 5565 5564 5563 5562 5561 5559 5558 5556 5555 5554 5553 5551 5550 5548 5547 5545 5544 5542 5540 5538 5537 5535 5533 5530 5528 5526 5523 5521 5519 5517 5514 5512 5510 5508 5506 5504 5502 5500 5498 5496 5494 5492 5490 5488 5486 5484 5482 5481 5479 5478 5476 5475 5474 5473 5471 5470 5469 5468 5466 5464 5462 5460 5458 5456 5455 5454 5453 5451
5580 5580 5579 5578 5578 5577 5576 5575 5574 5573 5572 5571 5570 5568 5567 5566 5565 5563 5562 5560 5559 5558 5557 5555 5554 5553 5551 5550 5549 5547 5546 5544 5543 5541 5540 5538 5537 5535 5533 5531 5529 5527 5525 5523 5521 5519 5517 5514 5512 5509 5507 5505 5503 5501 5498 5497 5495 5493 5491 5489 5487 5485 5483 5481 5479 5478 5476 5475 5474 5473 5471 5470 5468 5468 5466 5465 5463 5462 5460 5458 5456 5454 5453 5452 5451 5450
5577 5576 5576 5575 5574 5573 5572 5571 5570 5569 5568 5567 5566 5565 5564 5563 5561 5560 5558 5557 5556 5554 5553 5552 5550 5549 5548 5546 5545 5543 5542 5540 5539 5537 5536 5534 5533 5531 5529 5527 5526 5524 5522 5520 5518 5516 5514 5512 5509 5507 5504 5502 5500 5498 5495 5493 5492 5490 5488 5486 5484 5483 5480 5478 5477 5475 5473 5472 5471 5470 5468 5467 5466 5465 5464 5463 5461 5459 5458 5456 5454 5452 5451 5450 5449 5448